Regional Weather Roundup
Issued by NWS Wakefield, VA

Home | Current Version | Previous Version | Text Only | Print | Product List | Glossary Off
Versions: 1 2 3 4 5 6 7 8 9 10 11 12 13 14 15 16 17 18 19 20 21 22 23 24 25 26 27

000
ASUS41 KAKQ 250515
RWRAKQ

REGIONAL WEATHER ROUNDUP
NATIONAL WEATHER SERVICE WAKEFIELD VA
100 AM EDT MON JUL 25 2016

Note: "fair" indicates few or no clouds below 12,000 feet with no
significant weather and/or obstructions to visibility. * = Denotes
station may not report precipitation (e.g., rain,snow,etc.),
thunder or fog.

VAZ042-051-052>054-056-250600-
NORTHERN VIRGINIA

CITY           SKY/WX    TMP DP  RH WIND       PRES   REMARKS
WASH NATIONAL  FAIR      85  76  74 S5        29.97S
DULLES         FAIR      82  73  74 NW5       29.97S
FORT BELVOIR   NOT AVBL
QUANTICO       FAIR      82  75  79 NW5       29.96F
FREDERICKSBRG* FAIR      82  78  86 W3        29.96S
STAFFORD*      MOCLDY    78  74  88 SW3       30.01S
WARRENTON      MOCLDY    78  71  80 CALM      29.97F
CULPEPER*      FAIR      78  76  95 CALM      29.98F
MANASSAS*      FAIR      81  73  78 CALM      29.96F
LEESBURG*      FAIR      81  73  78 N6        30.00S
WINCHESTER     FAIR      75  73  94 CALM      30.01S
FRONT ROYAL*   FAIR      77  72  83 CALM      30.00S
LURAY*         FAIR      73  73 100 CALM      30.02S
$$

VAZ048-049-060>072-079>083-250600-
CENTRAL AND SOUTH CENTRAL VIRGINIA

CITY           SKY/WX    TMP DP  RH WIND       PRES   REMARKS
RICHMOND       MOCLDY    81  74  79 SW8       29.98S
CHESTERFIELD*  FAIR      81  64  57 S5        30.00F
PETERSBURG*    FAIR     N/A N/A N/A CALM      30.00S
HANOVER        FAIR      84  73  69 SW5       30.00R
TAPPAHANNOCK*  FAIR      82  79  92 CALM      29.98S
QUINTON*       FAIR      82  77  85 CALM      29.97F
CHARLOTTSVILLE FAIR      81  72  74 CALM      30.00S
GORDONSVILLE*  FAIR      77  76  96 CALM      29.99R
ORANGE*          N/A     79  77  94 CALM      30.01R
LOUISA*        FAIR      82  79  89 CALM      29.99R
BUMPASS*       FAIR      79  76  91 CALM      29.99S
FARMVILLE*     FAIR      78  75  90 CALM      30.00S
CREWE*         FAIR      80  77  91 CALM      30.00S
FORT PICKETT*  FAIR      77  76  97 SW7G16    30.01S
CHASE CITY*    FAIR      76  74  94 CALM      30.02S
CLARKSVILLE*   FAIR      77  77 100 S5        30.01F
SOUTH HILL*    FAIR      75  74  96 SW5       30.07S
LAWRENCEVILLE* FAIR      79  75  89 S3        30.00F
EMPORIA*       FAIR      77  73  88 CALM      30.02S
$$

VAZ088>098-250600-
SOUTHEAST VIRGINIA

CITY           SKY/WX    TMP DP  RH WIND       PRES   REMARKS
NORFOLK        FAIR      83  76  79 S8        29.99F
VIRGINIA BEACH FAIR      88  77  69 S9        29.99F HX 100
NORFOLK NAVAL  MOCLDY    84  75  74 SW9       30.00F
WEST POINT*    FAIR      83  75  78 S3        29.99S
SALUDA*        FAIR      82  79  91 SW5       29.97F
NEWPORT NEWS   FAIR      84  76  76 SW8       29.98F
LANGLEY AFB    FAIR      85  75  72 SE8       29.98F
FORT EUSTIS    FAIR      84  77  79 S6        29.97S
WILLIAMSBURG*  FAIR      86  75  70 SW6       29.99F HX  95
HR EXEC AP*    FAIR      81  75  83 SW8       30.02S
FRANKLIN*      FAIR      79  75  87 S5        30.01S
US460-WAKEFLD  FAIR      80  74  81 S3        29.99F
$$

VAZ020-022-025-037-045-250600-
WEST CENTRAL AND SOUTHWEST VIRGINIA

CITY           SKY/WX    TMP DP  RH WIND       PRES   REMARKS
STAUNTON*      FAIR      73  71  93 CALM      30.07S
WAYNESBORO*    FAIR      75  71  87 CALM      30.07S
HOT SPRINGS VA FAIR      73  66  78 SW7       30.21S
LYNCHBURG      FAIR      75  72  90 CALM      30.05S
DANVILLE       FAIR      76  73  91 S3        30.02F
SOUTH BOSTON*  FAIR      75  74  95 CALM      30.01F
MARTINSVILLE   FAIR      72  70  96 CALM      30.07S FOG
ROANOKE        FAIR      77  70  79 NW3       30.07S
BLACKSBURG     FAIR      72  70  95 CALM      30.15F
DUBLIN*        FAIR      74  69  87 CALM      30.13S
MARION*        FAIR      72  69  92 CALM      30.17S
HILLSVILLE*    FAIR      74  69  84 S3        30.15S
RICHLANDS*     CLOUDY    75  71  86 CALM      30.15S
WISE*          FAIR      73  61  64 S3        30.15F
ABINGDON*      FAIR      74  72  93 E3        30.11F
$$

MDZ021>025-VAZ099-100-250600-
SOUTHERN MARYLAND AND THE DELMARVA PENINSULA

CITY           SKY/WX    TMP DP  RH WIND       PRES   REMARKS
PATUXENT RIVER PTCLDY    83  77  82 S3        29.96F
BAY BRIDGE APT MOCLDY    84  77  79 SE7       29.96S
LEONARDTOWN    PTCLDY    82  77  83 S3        29.98F
DOVER          MOCLDY    78  74  88 S6        29.96F
GEORGETOWN     CLOUDY    78  76  93 S5        29.98F FOG
EASTON         CLOUDY    82  77  87 S5        29.99F
CAMBRIDGE      MOCLDY    77  75  94 S3        29.95F
SALISBURY      MOCLDY    77  76  96 CALM      29.97F FOG
OCEAN CITY     CLOUDY   N/A N/A N/A SW3       29.98F
WALLOPS ISLAND FAIR      81  79  94 S6        29.98F
ACCOMACK*      FAIR      81  77  89 CALM      29.98S
$$

NCZ012>017-030>032-250600-
NORTH CENTRAL AND EASTERN NORTH CAROLINA

CITY           SKY/WX    TMP DP  RH WIND       PRES   REMARKS
ROANOKE RAPIDS FAIR      77  75  94 S5        30.02S
RALEIGH        PTCLDY    82  75  79 SW8       30.04S
ELIZABETH CITY CLEAR     81  76  84 S10       30.02F
AHOSKIE*       CLEAR     77  76  95 S3        30.02S
EDENTON*       CLEAR     82  76  82 SW7       30.03F
CURRITUCK*     CLEAR     82  78  87 SW7       30.02S
KILL DEVIL HLS CLEAR     82  76  84 SW6       30.02F
MANTEO           N/A     81  79  94 SW13      30.03F
CAPE HATTERAS  PTCLDY    82  77  84 SW7       30.05F
TARBORO*       FAIR      81  76  85 S3        30.03F
GOLDSBORO      CLEAR     80  80 100 SW5       30.02F
WASHINGTON     CLEAR     78  75  90 S5        30.04S
GREENVILLE     CLEAR     81  77  89 SW7       30.05F
NEW BERN       CLEAR     79  76  90 S6        30.06F
WILMINGTON     CLEAR     79  75  87 S5        30.05F
$$

VAZ048-250600-
ELSEWHERE

CITY           SKY/WX    TMP DP  RH WIND       PRES   REMARKS
HARRISBURG PA  LGT RAIN  78  76  93 CALM      29.97S
BALTIMORE      MOCLDY    79  73  82 CALM      29.97S
ANNAPOLIS      CLOUDY    85  80  85 S7        29.96S HX  99
ANDREWS AFB    FAIR      81  72  74 SE6       29.95F
PHILADELPHIA   CLOUDY    82  66  58 SW5       29.98S
GREENSBORO     PTCLDY    81  72  74 S7        30.04F
ROCKY MOUNT    CLEAR     78  76  93 S5        30.03F
$$

VAZ100-250600-
MARINE

STATION/POSITION TIME  TEMP    WIND        PRES    WAVE   SWELL
                       AIR SEA DIR/SP/G            HT/PER HT/PER
                 (UTC) (F)     (DEG/KT/KT) (MB)    (FT/S) (FT/S)
CAPE MAY NJ      0400   77 73  150/  6/  8 1014.9F
LEWES DE         0400   79 74  170/  5/  6 1015.0F
OCEAN-CITY-INLET 0400   76 71  160/  4/  6 1015.8F
WACHAPREAGUE VA  0400   82 85  220/  3/  6 1015.3F
THOMAS POINT MD  0500   84 83  220/ 16/ 18 1016.2R
GOOSES REEF MD   0500   85 84  180/ 14/ 16 1015.1F   2/ 3
COVE POINT MD    0400   84     190/ 14/ 16 1015.3F
SOLOMONS ISLAND  0400   84 86  160/  5/  7   N/A
BISHOPS HEAD MD  0400   84     150/ 12/ 13 1015.2F
PINEY POINT MD   0400          180/ 10/ 11   N/A
POTOMAC MD       0500   85 85  210/  8/ 10 1013.6F   1/ 3
CAMBRIDGE MD     0400   81 86  140/  4/  8 1013.8F
LEWISETTA VA     0400   85 88  190/  7/  8 1014.5F
RAPPAHANNOCK LGT 0400          190/  9/ 10 1015.8F
STINGRAY PT      0500   87 86  160/ 10/ 12 1015.3F   1/ 2
YORK RVR RNG VA  0400   87     230/  9/ 10 1014.8F
YORKTOWN VA      0400   86 84  220/  6/  9 1015.0F
JAMESTOWN VA     0500   84 88  210/  8/ 12   N/A
DOMINION TERM VA 0400   86     220/  7/  8 1015.7F
KIPTOPEKE VA     0400      83  170/  6/  7   N/A
CHES BAY BRIDGE  0400   86 76  190/  8/  8 1015.6F
CAPE HENRY VA    0400   84     190/  5/  8   N/A
WILLOUBY STN VA  0400   86     220/  9/ 11   N/A
CAPE HENRY BUOY  0412      78                N/A     2/ 9
1ST LANDING BUOY 0500   83 81  200/ 10/ 12 1015.1F
CAPE CHARLES BUO 0426      75                N/A     2/ 4
OFFSHORE WE BUOY 0421      82                N/A     3/ 4
64NM E OF VA BCH 0450   82 81  220/ 14/ 17 1015.7F   3/ 4   2/ 8
DUCK PIER NC     0400   84 62  220/ 13/ 17 1016.1F
44100 DUCK FRF   0405      79                N/A     2/ 8
44056 DUCK FRF   0411      75                N/A     1/ 9
OREGON INLET NC  0400   84 85  210/ 15/ 18 1017.2S
HATTERAS NC      0400   82 84  220/  7/  9 1017.5F
DIAMOND SHLS NC  0450   85 85  220/ 14/ 17 1017.5    2/ 4   2/ 8
CAPE LOOKOUT NC  0500   83     210/  8/ 10 1017.6F
$$




USA.gov is the U.S. government's official web portal to all federal, state and local government web resources and services.